Burlington, VT

11:40 PM EST on November 16, 2019 (GMT -0500)
Burlington International

Weather History for KBTV - September, 2019

Change the Weather History Date:

Sunday, September 1, 2019

  Actual Average Record
Temperature  
Mean Temperature 64 °F 66 °F  
Max Temperature 76 °F 76 °F 92 °F (2010)
Min Temperature 52 °F 56 °F 40 °F (1967)
Degree Days  
Heating Degree Days 1 2  
Month to date heating degree days 1 2  
Since 1 July heating degree days 5 44  
Cooling Degree Days 0 3  
Month to date cooling degree days 0 3  
Year to date cooling degree days 580 451  
Growing Degree Days 14 (Base 50)    
Moisture  
Dew Point 51 °F    
Average Humidity 64    
Maximum Humidity 89    
Minimum Humidity 38    
Precipitation  
Precipitation 0.10 in 0.11 in 1.08 in (1888)
Month to date precipitation 0.10 0.11  
Year to date precipitation 26.39 24.18  
Snow  
Snow 0.00 in 0.00 in 0.00 in (2002)
Month to date snowfall 0.0 0.0  
Since 1 July snowfall 0.0 0.0  
Since 1 September snowfall 0.0 0.0  
Snow Depth 0.00 in    
Sea Level Pressure  
Sea Level Pressure 30.29 in    
Wind  
Wind Speed 6 mph (SSE)    
Max Wind Speed 17 mph    
Max Gust Speed 24 mph    
Visibility 10 miles    
Events Rain    
T = Trace of Precipitation, MM = Missing Value Source: NWS Daily Summary

Daily Weather History Graph

Daily Weather History Graph

Search for Another Location

Airport or City:

Astronomy

Sep. 01, 2019 Rise Set
Actual Time 6:14 AM EDT 7:29 PM EDT
Civil Twilight 5:44 AM EDT 7:59 PM EDT
Nautical Twilight 5:08 AM EDT 8:35 PM EDT
Astronomical Twilight 4:30 AM EDT 9:13 PM EDT
Moon 8:46 AM EDT (9/1) 9:09 PM EDT (9/1)
Length of Visible Light 14h 14m
Length of Day
13h 14m
Waxing Crescent, 8% of the Moon is Illuminated
Sep 1
Waxing Crescent
Sep 5
First Quarter
Sep 14
Full
Sep 21
Last Quarter
Sep 28
New

Hourly Weather History & Observations

Time (EDT) Temp. Dew Point Humidity Pressure Visibility Wind Dir Wind Speed Gust Speed Precip Events Conditions
12:54 AM 54.0 °F 50.0 °F 86% 30.35 in 10.0 mi Calm Calm - N/A   Clear
1:54 AM 53.1 °F 50.0 °F 89% 30.35 in 10.0 mi ENE 3.5 mph - N/A   Clear
2:54 AM 53.1 °F 48.9 °F 86% 30.35 in 10.0 mi ENE 3.5 mph - N/A   Clear
3:54 AM 52.0 °F 48.9 °F 89% 30.35 in 10.0 mi Calm Calm - N/A   Clear
4:54 AM 52.0 °F 48.9 °F 89% 30.36 in 10.0 mi Calm Calm - N/A   Clear
5:54 AM 52.0 °F 48.9 °F 89% 30.36 in 10.0 mi Calm Calm - N/A   Mostly Cloudy
7:54 AM 55.9 °F 51.1 °F 84% 30.39 in 10.0 mi South 3.5 mph - N/A   Mostly Cloudy
8:54 AM 60.1 °F 52.0 °F 75% 30.38 in 10.0 mi SE 3.5 mph - N/A   Mostly Cloudy
9:54 AM 64.9 °F 53.1 °F 65% 30.39 in 10.0 mi Variable 3.5 mph - N/A   Scattered Clouds
10:54 AM 66.9 °F 51.1 °F 57% 30.37 in 10.0 mi South 9.2 mph - N/A   Scattered Clouds
11:54 AM 71.1 °F 46.9 °F 42% 30.36 in 10.0 mi South 11.5 mph 17.3 mph N/A   Partly Cloudy
12:54 PM 72.0 °F 46.0 °F 40% 30.32 in 10.0 mi SSW 10.4 mph - N/A   Partly Cloudy
1:54 PM 75.0 °F 48.0 °F 38% 30.30 in 10.0 mi South 12.7 mph - N/A   Partly Cloudy
2:54 PM 75.0 °F 48.9 °F 40% 30.27 in 10.0 mi South 12.7 mph 19.6 mph N/A   Partly Cloudy
3:54 PM 75.0 °F 48.9 °F 40% 30.25 in 10.0 mi South 12.7 mph 20.7 mph N/A   Scattered Clouds
4:54 PM 73.0 °F 48.0 °F 41% 30.25 in 10.0 mi South 12.7 mph - N/A   Mostly Cloudy
5:54 PM 71.1 °F 50.0 °F 47% 30.24 in 10.0 mi South 10.4 mph - N/A   Mostly Cloudy
6:54 PM 70.0 °F 51.1 °F 51% 30.22 in 10.0 mi South 9.2 mph - N/A   Mostly Cloudy
7:54 PM 69.1 °F 51.1 °F 53% 30.20 in 10.0 mi South 10.4 mph - N/A   Mostly Cloudy
8:54 PM 66.9 °F 53.1 °F 61% 30.19 in 10.0 mi South 6.9 mph - 0.00 in   Mostly Cloudy
9:54 PM 66.9 °F 54.0 °F 63% 30.18 in 10.0 mi South 6.9 mph - 0.00 in   Overcast
10:54 PM 64.0 °F 57.0 °F 78% 30.18 in 10.0 mi Calm Calm - 0.00 in Rain Light Rain
11:54 PM 64.0 °F 57.9 °F 80% 30.15 in 10.0 mi Calm Calm - 0.01 in Rain Light Rain